Tracking 23757 objects as of 25-Oct-2021
HD Live streaming from Space Station
objects crossing your sky now

H-2A R/B

Track H-2A R/B now!
10-day predictions


NORAD ID: 42073
Int'l Code: 2017-015B
Perigee: 482.1 km
Apogee: 487.1 km
Inclination: 97.0 °
Period: 94.2 minutes
Semi major axis: 6855 km
RCS: Unknown
Launch date: March 17, 2017
Source: Japan (JPN)
Launch site: TANEGASHIMA SPACE CENTER (TNSTA)

Note: This is a ROCKET BODY
aabbcc
Your satellite tracking list
Your tracking list is empty




NASA's NSSDC Master Catalog

Two Line Element Set (TLE):
1 42073U 17015B   21295.71598390 0.00002400  00000-0  84265-4 0    09
2 42073  97.0143 305.1987 0003663 162.4493 197.5506 15.29438932    01
Source of the keplerian elements: McCants